Regional Weather Roundup
Issued by NWS Goodland, KS

Home | Current Version | Previous Version | Graphics & Text | Print | Product List | Glossary On
Versions: 1 2 3 4 5 6 7 8 9 10 11 12 13 14 15 16 17 18 19 20 21 22 23 24 25 26 27 28 29 30 31 32 33 34 35 36 37 38 39 40 41 42 43 44 45 46 47 48 49 50
281
ASUS43 KGLD 050959
RWRGLD

GOODLAND FORECAST AREA HOURLY WEATHER ROUNDUP
NATIONAL WEATHER SERVICE GOODLAND KS
300 AM MST MON DEC 05 2016

...OFFICIAL OBSERVATIONS...

CITY           SKY/WX    TMP DP  RH WIND       PRES   REMARKS
GOODLAND KS    CLOUDY    30  16  56 SW12      29.63F
HILL CITY KS   CLOUDY    37  24  59 W7        29.73F
IMPERIAL NEB   CLOUDY    30  19  63 N5        29.64F
MCCOOK NEB     CLOUDY    34  19  54 SW3       29.68F
AKRON CO       CLOUDY    31  13  47 W10       29.63F
BURLINGTON CO  CLOUDY    28  14  55 SW8       29.64F
LIMON CO       CLOUDY    17  12  80 N6        29.64F
$$

...UNOFFICIAL OBSERVATIONS...

CITY           SKY/WX    TMP DP  RH WIND       PRES   REMARKS
COLBY KS       CLEAR     34  25  69 S12       29.67F
LENORA KS        N/A     39  32  76 MISG        N/A
NORTON KS      CLEAR     37  19  48 S15       29.68F
SHARON SPRINGS   N/A     31  20  64 S13G20      N/A
TRENTON NEB      N/A     28  32 100 CALM        N/A
KIT CARSON CO    N/A     18   9  67 CALM        N/A
YUMA CO        FAIR      32  14  47 W13       29.61F
$$




USA.gov is the U.S. government's official web portal to all federal, state and local government web resources and services.